Izaña en Tenerife

latitud = 28° 18' 32''N | longitud = 016° 29' 58''W
2371 metros sobre el nivel del mar | datos mensuales

Fecha, hora, temperatura, viento dirección y velocidad, humedad y presión.

  • 22-11-2017 08:00:00 | 7.20°C | Oeste |21.00 km/h | 31.00% | 766.40 hPa
  • 22-11-2017 07:00:00 | 6.50°C | Oeste |29.00 km/h | 30.00% | 765.90 hPa
  • 22-11-2017 06:00:00 | 5.90°C | Sudoeste |31.00 km/h | 30.00% | 765.50 hPa
  • 22-11-2017 05:00:00 | 5.90°C | Sudoeste |32.00 km/h | 27.00% | 765.90 hPa
  • 22-11-2017 04:00:00 | 6.00°C | Oeste |27.00 km/h | 35.00% | 766.70 hPa
  • 22-11-2017 03:00:00 | 6.30°C | Oeste |31.00 km/h | 29.00% | 766.60 hPa
  • 22-11-2017 02:00:00 | 6.40°C | Oeste |29.00 km/h | 28.00% | 766.90 hPa
  • 22-11-2017 01:00:00 | 6.00°C | Sudoeste |34.00 km/h | 26.00% | 767.30 hPa
  • 22-11-2017 00:00:00 | 6.30°C | Sudoeste |34.00 km/h | 25.00% | 767.70 hPa
  • 21-11-2017 23:00:00 | 5.70°C | Sudoeste |31.00 km/h | 22.00% | 767.80 hPa
  • 21-11-2017 22:00:00 | 5.20°C | Sudoeste |31.00 km/h | 26.00% | 767.80 hPa
  • 21-11-2017 21:00:00 | 4.90°C | Sur |33.00 km/h | 29.00% | 767.70 hPa
  • 21-11-2017 20:00:00 | 5.20°C | Sur |41.00 km/h | 30.00% | 767.60 hPa
  • 21-11-2017 19:00:00 | 5.20°C | Sur |45.00 km/h | 32.00% | 767.50 hPa
  • 21-11-2017 18:00:00 | 5.30°C | Sur |46.00 km/h | 33.00% | 767.60 hPa
  • 21-11-2017 17:00:00 | 5.70°C | Sur |51.00 km/h | 34.00% | 767.60 hPa
  • 21-11-2017 16:00:00 | 6.40°C | Sur |38.00 km/h | 33.00% | 767.80 hPa
  • 21-11-2017 15:00:00 | 7.00°C | Sur |46.00 km/h | 33.00% | 767.70 hPa
  • 21-11-2017 14:00:00 | 7.50°C | Sudeste |45.00 km/h | 33.00% | 767.70 hPa
  • 21-11-2017 13:00:00 | 6.70°C | Sur |49.00 km/h | 35.00% | 768.20 hPa
  • 21-11-2017 12:00:00 | 6.20°C | Sur |47.00 km/h | 37.00% | 769.00 hPa
  • 21-11-2017 11:00:00 | 6.20°C | Sur |54.00 km/h | 37.00% | 769.10 hPa
  • 21-11-2017 10:00:00 | 6.80°C | Sur |54.00 km/h | 35.00% | 769.20 hPa
  • 21-11-2017 09:00:00 | 4.70°C | Sur |54.00 km/h | 38.00% | 768.90 hPa